Temp
55 55 55 54 53 52 55 77 72 80 80 72 75 70 71 59 76 79 77 77 76 75 76 76 77 79 84 89 92 82 88 83 75 80 87 87 87 84 84 76 69 76 74 76
55 55 55 54 52 51 68 75 76 81 79 67 68 70 71 72 73 75 76 75 77 79 76 71 77 79 85 86 88 84 87 79 71 74 82 84 81 84 85 83 80 72 71 75
55 55 55 54 53 52 62 73 68 74 77 77 70 66 68 68 75 74 77 76 78 77 75 79 75 79 83 84 87 70 81 81 74 74 77 84 76 79 82 83 75 76 78 79
55 55 55 54 53 52 63 75 68 68 68 70 71 69 67 66 67 75 75 74 75 75 71 76 75 80 82 82 72 81 85 73 79 82 83 82 82 81 79 78 81 76 79 80
55 55 55 54 53 51 72 70 69 73 71 66 68 59 67 66 70 70 71 70 77 77 72 76 74 79 79 80 82 81 84 75 80 77 83 83 79 82 81 81 82 82 83 80
55 55 55 54 52 55 72 71 71 68 58 68 68 69 67 66 69 73 77 75 74 73 77 83 83 84 81 80 78 78 78 78 73 71 80 79 73 80 81 83 85 84 78 80
55 55 55 54 52 53 70 65 67 68 68 70 71 67 68 67 69 68 75 76 73 75 81 82 83 85 82 81 79 82 75 73 76 74 74 62 77 86 88 84 84 85 82 80
55 55 55 55 53 52 66 66 66 67 68 71 68 67 68 71 71 69 70 75 77 79 76 74 70 73 73 77 79 78 81 77 72 68 69 73 74 78 79 80 79 85 83 81
55 55 55 55 53 52 67 64 65 67 64 69 66 67 68 68 70 71 71 77 78 77 77 74 63 65 70 69 73 80 79 76 76 71 66 62 77 80 84 84 73 83 82 82
54 55 55 55 55 52 62 64 62 65 64 72 66 68 66 70 69 69 70 67 71 77 75 70 69 70 73 68 68 69 74 75 72 71 70 71 80 81 85 69 71 81 82 81
54 54 55 55 54 54 59 64 62 62 65 69 67 69 67 70 71 65 68 67 68 74 68 69 72 70 72 71 68 69 71 70 71 73 68 63 77 79 75 73 78 81 82 81
54 54 54 54 54 54 55 67 67 65 60 68 68 71 72 70 71 67 69 64 61 65 68 71 70 70 70 68 65 71 67 70 72 70 70 71 76 74 75 76 75 78 81 82
53 54 54 54 53 53 53 62 62 64 63 69 70 71 72 75 73 77 66 69 63 65 66 68 68 63 71 68 70 70 71 73 76 71 73 74 73 76 76 77 77 80 82 82
53 53 54 53 53 52 52 63 64 62 64 62 67 76 72 74 76 72 73 67 65 64 67 68 68 67 71 72 70 72 75 73 70 71 73 73 74 75 76 77 79 80 82 82
53 53 53 53 52 52 58 66 67 66 59 61 69 73 73 77 73 72 72 68 62 64 64 66 65 69 70 76 75 75 79 72 72 72 71 73 73 74 76 78 78 80 79 78
53 53 52 52 52 52 63 61 65 69 64 61 64 72 70 73 73 72 70 71 67 67 63 65 68 66 66 68 69 72 75 75 77 73 75 73 75 75 76 78 79 80 80 79
53 52 52 52 51 57 60 59 60 54 64 61 63 67 71 71 72 76 76 71 71 69 65 66 68 70 66 70 66 73 75 76 75 76 76 73 75 74 77 79 78 76 80 80
52 52 52 51 51 52 59 65 55 57 61 63 59 65 66 71 70 68 75 72 72 68 68 68 67 70 71 64 69 70 72 73 74 75 77 77 79 79 77 78 79 76 76 77
52 52 52 57 57 61 62 53 54 65 61 59 63 61 60 72 72 73 70 71 64 70 66 67 67 66 61 64 64 67 69 68 70 74 75 76 76 76 77 77 75 68 71 69
51 55 57 56 61 52 55 57 59 61 63 62 60 69 62 69 68 66 68 69 66 60 66 70 63 64 66 67 67 67 68 70 72 70 71 73 73 73 74 74 76 77 77 78
58 57 58 62 53 61 61 55 55 59 55 62 65 64 64 70 61 63 69 63 67 57 61 61 61 61 63 64 66 69 71 72 73 72 73 74 74 74 74 73 74 75 74 73
55 57 57 62 59 57 51 52 57 54 56 62 61 65 66 68 69 59 63 58 63 52 65 60 57 58 62 65 66 67 70 70 70 71 71 72 72 73 73 74 74 74 74 74
59 56 53 55 52 39 45 45 52 54 59 63 63 60 66 65 63 61 59 53 55 67 56 57 57 58 62 64 67 66 69 69 70 70 71 72 71 73 72 72 74 74 73 73
54 49 36 46 45 51 56 59 60 61 64 65 62 64 61 63 56 61 52 62 62 52 50 51 58 60 61 64 66 67 66 67 68 68 69 69 70 70 71 72 72 71 70 71
50 51 40 48 59 61 64 65 62 64 66 64 60 61 62 60 57 59 58 52 50 55 54 58 61 60 59 57 58 62 65 66 66 67 68 68 68 67 68 70 71 70 70 69
53 52 51 57 56 58 60 62 62 68 67 66 63 58 56 55 59 53 52 51 50 53 60 62 58 56 58 60 63 65 64 64 64 66 66 66 67 66 66 69 69 68 67 65
50 53 59 60 60 61 63 64 64 66 63 54 59 52 52 62 54 52 58 54 57 60 60 61 61 61 61 62 63 63 61 59 59 59 60 62 64 65 65 62 61 62 60 59
MSLP
1021.98 1021.23 1020.47 1019.66 1018.64 1017.46 1016.60 1014.45 1012.53 1013.70 1013.81 1012.52 1011.27 1010.05 1010.11 1010.81 1008.93 1008.59 1007.90 1007.43 1006.54 1005.71 1005.18 1004.26 1003.72 1003.16 1002.84 1003.33 1003.15 1003.65 1003.89 1003.65 1002.94 1002.50 1002.99 1003.35 1002.89 1002.55 1002.74 1002.51 1003.29 1003.17 1002.85 1002.20
1021.88 1021.16 1020.40 1019.56 1018.71 1018.12 1016.31 1013.78 1012.97 1013.39 1013.16 1011.12 1010.59 1010.74 1010.29 1010.05 1009.24 1008.57 1007.99 1007.37 1007.05 1006.54 1005.66 1005.14 1004.34 1003.86 1004.02 1004.24 1003.74 1003.45 1003.78 1003.64 1003.07 1002.77 1003.15 1003.62 1003.14 1003.11 1003.01 1003.02 1003.05 1002.97 1002.58 1002.27
1021.81 1021.21 1020.39 1019.41 1018.66 1018.08 1017.35 1013.98 1012.24 1012.44 1012.06 1011.71 1010.72 1010.55 1010.04 1009.74 1009.66 1009.20 1008.65 1007.89 1007.54 1006.79 1006.09 1005.50 1004.80 1004.12 1004.34 1004.63 1004.33 1004.56 1004.35 1003.41 1003.15 1001.80 1001.69 1001.74 1002.77 1003.07 1003.15 1002.63 1002.51 1002.33 1002.50 1002.41
1021.70 1021.05 1020.32 1019.55 1018.57 1017.87 1017.35 1014.24 1012.84 1012.74 1011.31 1011.23 1011.00 1010.94 1010.60 1009.79 1009.23 1009.19 1008.81 1007.91 1007.57 1006.90 1006.21 1005.32 1004.88 1004.46 1004.32 1004.69 1004.90 1004.87 1004.33 1003.65 1003.36 1002.60 1002.09 1002.45 1002.05 1002.44 1002.87 1002.71 1002.34 1002.25 1001.94 1002.79
1022.07 1021.39 1020.52 1019.46 1018.36 1017.55 1016.18 1014.51 1013.68 1013.19 1012.21 1011.94 1011.32 1011.37 1010.29 1009.91 1009.29 1009.29 1008.28 1008.08 1007.00 1006.93 1006.70 1005.80 1005.01 1004.77 1004.53 1003.91 1004.70 1004.56 1004.31 1003.69 1003.15 1002.69 1002.46 1002.64 1002.43 1002.41 1002.71 1002.79 1002.62 1002.61 1002.93 1003.70
1022.20 1021.59 1020.89 1020.05 1018.78 1017.15 1015.86 1016.20 1015.49 1014.33 1012.73 1011.81 1011.13 1010.62 1010.70 1010.33 1010.26 1009.32 1008.69 1008.29 1008.01 1007.55 1006.95 1006.41 1006.23 1005.88 1005.56 1005.27 1004.75 1004.42 1004.34 1003.66 1003.52 1002.43 1002.58 1002.67 1002.37 1002.18 1002.44 1002.52 1002.81 1002.73 1003.45 1004.82
1022.29 1021.69 1021.05 1020.70 1019.91 1018.88 1017.12 1017.43 1016.31 1014.23 1012.11 1011.70 1011.13 1011.26 1011.15 1010.66 1010.35 1009.88 1008.97 1008.83 1008.39 1008.46 1008.28 1007.60 1006.80 1005.81 1005.53 1005.29 1005.06 1004.73 1004.29 1004.00 1003.39 1002.30 1002.97 1002.57 1002.23 1002.46 1002.40 1002.65 1003.17 1003.84 1004.62 1005.46
1022.42 1021.87 1021.43 1021.03 1020.45 1019.69 1017.97 1017.77 1016.75 1015.24 1013.00 1012.43 1011.89 1011.64 1011.17 1010.77 1010.54 1010.33 1009.88 1009.19 1009.16 1008.94 1008.27 1006.96 1006.13 1005.62 1005.40 1004.86 1004.95 1004.71 1004.31 1003.96 1003.19 1002.88 1002.76 1002.87 1003.34 1003.58 1003.47 1003.25 1003.79 1004.55 1005.17 1006.38
1022.58 1022.07 1021.49 1020.93 1020.39 1019.80 1018.40 1018.35 1018.27 1016.74 1015.08 1012.88 1013.37 1012.28 1011.80 1011.03 1010.45 1009.93 1009.79 1009.87 1009.73 1008.94 1007.47 1006.41 1005.43 1004.46 1004.30 1004.47 1004.66 1004.71 1004.43 1004.31 1003.31 1003.15 1002.54 1002.86 1002.53 1004.19 1004.54 1004.40 1004.54 1005.52 1006.10 1006.80
1022.45 1022.00 1021.50 1020.98 1020.46 1020.11 1019.14 1018.74 1019.13 1017.88 1015.91 1014.33 1014.38 1013.00 1012.75 1012.30 1011.65 1010.82 1010.89 1010.79 1009.65 1008.97 1007.18 1006.20 1005.15 1004.23 1004.77 1004.33 1004.25 1004.47 1004.08 1003.73 1003.17 1003.26 1003.08 1004.03 1004.59 1005.20 1005.21 1005.34 1006.43 1006.46 1006.91 1007.52
1022.41 1022.01 1021.65 1021.24 1020.85 1020.58 1019.68 1019.22 1019.67 1019.03 1016.97 1015.25 1015.16 1014.62 1013.88 1013.16 1012.64 1012.05 1011.97 1011.60 1010.48 1009.35 1008.33 1007.10 1005.73 1005.31 1005.28 1005.31 1005.73 1005.31 1004.67 1004.24 1004.02 1004.26 1004.33 1005.36 1006.51 1006.23 1006.25 1007.62 1007.40 1007.22 1007.55 1008.05
1022.36 1022.03 1021.75 1021.37 1021.05 1020.86 1020.43 1019.04 1019.73 1019.90 1018.64 1015.90 1015.89 1015.39 1015.11 1014.89 1014.31 1013.93 1013.05 1012.75 1012.20 1012.24 1010.49 1009.16 1008.09 1006.80 1006.64 1005.89 1005.63 1006.54 1006.13 1006.27 1005.38 1006.22 1006.23 1007.50 1007.73 1007.89 1008.62 1008.67 1008.39 1008.27 1008.30 1008.68
1022.29 1022.09 1021.92 1021.63 1021.36 1021.31 1021.16 1019.97 1019.87 1019.25 1017.80 1015.51 1014.97 1014.21 1014.81 1014.85 1014.72 1014.44 1013.83 1013.43 1013.96 1013.39 1013.37 1011.30 1009.68 1008.31 1007.71 1006.38 1006.10 1006.53 1007.11 1007.25 1006.33 1006.79 1007.37 1007.81 1008.42 1008.77 1009.15 1009.32 1009.01 1008.99 1009.01 1009.11
1022.32 1022.16 1022.02 1021.84 1021.59 1021.37 1021.17 1019.89 1019.98 1019.57 1018.16 1015.79 1014.37 1014.57 1014.34 1014.83 1014.69 1014.68 1014.64 1014.63 1014.81 1014.41 1013.54 1011.98 1010.49 1009.19 1009.06 1007.76 1007.63 1006.94 1007.25 1007.67 1007.53 1007.39 1008.04 1008.63 1009.03 1009.29 1009.54 1009.46 1009.42 1009.36 1009.61 1009.49
1022.27 1022.13 1021.96 1021.89 1021.74 1021.39 1020.66 1020.18 1019.94 1020.11 1019.46 1016.45 1014.26 1014.12 1014.45 1014.21 1014.46 1014.41 1014.57 1014.67 1014.73 1014.11 1013.27 1012.09 1011.09 1010.73 1010.06 1008.98 1008.15 1007.22 1007.68 1007.66 1007.61 1007.08 1008.83 1009.00 1009.26 1009.88 1010.01 1009.71 1009.59 1009.60 1009.77 1010.15
1022.11 1022.05 1021.89 1021.87 1021.79 1021.43 1019.91 1019.31 1019.91 1020.04 1019.83 1017.59 1014.27 1014.15 1014.08 1014.10 1014.12 1014.12 1014.26 1014.34 1014.41 1014.09 1013.43 1012.59 1012.12 1012.19 1011.63 1009.43 1008.39 1008.73 1008.75 1008.93 1008.90 1008.95 1009.51 1009.73 1010.00 1010.22 1010.32 1010.06 1010.14 1010.05 1010.26 1010.74
1021.91 1021.88 1021.83 1021.81 1021.81 1021.27 1020.18 1020.13 1020.33 1020.78 1020.00 1017.62 1014.83 1013.27 1013.79 1014.09 1013.83 1013.62 1013.56 1014.13 1013.93 1013.71 1013.37 1012.83 1012.24 1012.08 1011.94 1010.11 1009.09 1009.24 1009.49 1009.67 1009.80 1009.97 1009.96 1009.87 1009.92 1009.85 1010.23 1010.42 1010.71 1011.04 1011.29 1011.49
1021.73 1021.73 1021.77 1021.73 1021.64 1021.56 1020.51 1019.70 1020.54 1020.72 1019.39 1017.84 1015.27 1013.36 1013.38 1013.85 1012.72 1012.65 1013.58 1013.14 1013.38 1013.49 1013.08 1013.03 1012.27 1012.11 1011.70 1010.66 1010.44 1010.77 1010.79 1010.72 1010.50 1010.56 1010.53 1010.40 1010.24 1010.31 1010.75 1011.14 1011.32 1011.52 1011.86 1012.05
1021.65 1021.62 1021.55 1021.07 1021.01 1019.93 1019.81 1020.71 1020.64 1019.99 1019.58 1016.98 1015.37 1013.29 1012.47 1013.50 1012.88 1013.01 1013.25 1013.25 1012.55 1013.23 1012.51 1012.36 1012.48 1011.47 1011.43 1011.61 1011.92 1011.86 1011.85 1011.73 1011.45 1011.27 1011.11 1010.95 1010.81 1010.91 1011.13 1011.34 1011.57 1011.87 1012.47 1012.68
1021.56 1021.27 1020.62 1019.69 1019.71 1020.81 1020.81 1020.55 1019.28 1018.60 1017.85 1017.25 1015.23 1014.28 1013.16 1013.41 1012.62 1012.59 1012.82 1012.77 1012.09 1011.92 1012.00 1012.56 1012.20 1011.43 1012.23 1012.57 1012.88 1012.89 1012.63 1012.35 1012.02 1011.53 1011.28 1011.27 1011.21 1011.53 1011.80 1011.95 1012.02 1012.10 1012.19 1012.14
1020.91 1020.07 1019.48 1019.82 1020.49 1020.09 1019.07 1018.34 1017.74 1017.03 1016.39 1015.62 1014.81 1014.25 1013.12 1013.77 1013.20 1012.85 1013.18 1012.67 1012.07 1011.73 1011.70 1012.01 1011.53 1011.39 1012.52 1013.33 1013.45 1013.29 1012.94 1012.52 1012.31 1012.41 1012.26 1012.24 1012.11 1012.03 1012.09 1012.31 1012.38 1012.44 1012.65 1012.88
1020.66 1020.29 1020.39 1019.92 1019.15 1018.73 1018.08 1017.11 1016.59 1016.04 1014.82 1014.76 1014.36 1013.99 1014.11 1013.77 1014.10 1013.84 1013.60 1013.06 1012.56 1011.88 1012.28 1012.15 1011.52 1012.74 1013.60 1013.68 1013.90 1013.95 1013.75 1013.49 1013.37 1013.33 1013.28 1013.17 1013.11 1013.07 1012.91 1012.81 1012.83 1012.95 1013.07 1013.17
1020.41 1020.24 1019.40 1018.68 1018.64 1017.93 1016.60 1015.51 1014.95 1014.59 1014.61 1014.53 1014.29 1014.04 1013.82 1014.25 1014.37 1013.88 1013.59 1012.87 1012.23 1012.38 1012.37 1011.73 1012.45 1013.72 1014.13 1014.39 1014.35 1014.44 1014.39 1014.23 1014.11 1013.99 1013.92 1013.77 1013.68 1013.57 1013.55 1013.49 1013.47 1013.50 1013.47 1013.53
1019.41 1018.92 1018.79 1017.84 1016.94 1015.98 1015.07 1014.56 1014.28 1014.73 1014.76 1014.49 1014.53 1013.91 1013.97 1013.91 1014.00 1013.56 1013.12 1012.60 1012.57 1012.15 1011.82 1012.08 1013.04 1014.03 1014.54 1014.97 1015.07 1014.83 1014.86 1014.80 1014.65 1014.53 1014.41 1014.25 1014.13 1014.05 1014.06 1013.90 1013.83 1013.85 1013.81 1013.89
1018.73 1018.24 1017.28 1016.55 1015.73 1015.45 1015.13 1015.05 1015.03 1014.92 1014.97 1014.67 1014.54 1014.42 1014.17 1013.76 1013.69 1013.54 1013.06 1012.73 1012.16 1011.79 1012.13 1012.96 1013.90 1014.82 1015.39 1015.77 1015.81 1015.53 1015.30 1015.26 1015.15 1015.00 1014.77 1014.59 1014.51 1014.44 1014.27 1014.15 1014.14 1014.13 1014.07 1014.01
1018.36 1017.65 1016.53 1015.94 1015.45 1014.84 1014.67 1014.61 1014.51 1014.76 1014.67 1014.78 1014.51 1013.79 1013.54 1013.30 1013.31 1013.11 1012.66 1012.51 1012.32 1012.60 1013.13 1013.94 1015.02 1015.54 1015.69 1015.75 1015.62 1015.68 1015.83 1015.79 1015.61 1015.35 1015.12 1014.96 1014.72 1014.60 1014.48 1014.34 1014.17 1014.28 1014.38 1014.41
1017.57 1016.55 1016.23 1015.58 1015.32 1014.85 1014.83 1014.83 1014.64 1015.05 1014.57 1014.18 1013.80 1013.38 1013.22 1013.34 1013.04 1012.80 1013.02 1012.81 1013.10 1013.24 1013.98 1014.55 1015.17 1015.51 1015.84 1016.05 1016.11 1016.10 1016.32 1016.25 1016.19 1016.07 1015.86 1015.52 1015.25 1015.11 1014.84 1014.80 1014.96 1015.14 1015.33 1015.41
Wind_Speed
17 18 20 22 24 26 8 4 4 4 3 8 3 8 3 1 4 4 3 4 4 4 2 4 7 10 6 1 12 16 13 9 10 13 7 4 8 11 12 10 10 6 8 7
17 18 20 22 22 19 6 1 2 4 4 5 8 4 7 3 5 4 4 4 2 2 3 4 6 3 3 4 11 10 12 9 10 11 9 6 8 9 11 5 3 7 8 7
17 17 19 22 23 18 6 4 5 5 4 1 4 5 7 7 5 9 9 8 6 8 9 5 5 6 5 4 10 7 7 12 13 11 12 6 9 12 13 15 8 11 12 8
18 19 20 22 24 19 6 2 3 6 5 7 3 4 0 6 7 8 4 8 14 12 8 10 10 8 7 6 6 6 10 12 16 15 2 5 6 12 13 13 11 8 6 6
15 17 20 23 25 22 3 4 4 4 3 2 6 5 5 7 5 6 9 11 7 6 13 12 10 5 4 5 7 8 8 10 14 17 13 13 9 8 11 9 6 3 2 5
13 15 18 20 25 18 3 2 2 5 5 6 7 3 1 1 2 9 13 6 7 11 8 10 7 8 4 3 6 9 8 11 9 16 9 12 14 13 14 12 10 4 7 9
13 14 16 17 19 15 3 4 3 4 4 6 1 1 3 6 6 9 2 6 8 5 9 8 9 9 6 5 2 7 8 11 7 10 8 15 5 4 7 10 8 5 5 8
11 13 14 16 16 17 4 4 4 4 4 4 5 3 4 7 4 7 8 6 5 7 6 8 7 7 6 6 1 5 7 11 5 7 12 4 8 8 9 13 11 6 7 8
9 11 13 15 16 17 3 7 3 3 6 3 5 7 4 6 4 5 3 0 6 3 6 9 11 11 10 8 8 3 6 8 9 6 9 10 13 8 4 3 9 5 4 8
8 11 13 15 17 16 7 5 6 4 5 4 6 4 7 5 4 4 1 6 3 1 6 10 10 12 1 7 12 7 9 6 9 9 7 7 8 4 4 10 7 6 4 5
6 9 11 13 15 16 9 5 5 5 4 5 3 4 6 5 4 5 7 6 2 2 6 6 4 8 4 3 4 1 6 6 6 2 5 6 2 4 5 6 5 4 7 6
5 8 10 11 13 15 12 1 2 3 5 6 4 10 12 11 8 7 3 4 5 5 5 1 3 4 4 2 7 2 4 6 4 7 7 4 3 5 4 4 4 3 6 7
3 6 8 10 10 11 9 4 4 4 4 5 6 3 2 3 6 6 5 4 4 3 4 5 3 1 4 5 4 3 3 1 1 4 5 5 3 4 3 4 4 2 6 7
3 4 6 8 9 9 8 3 3 4 4 6 6 2 2 2 2 4 4 4 2 3 4 4 3 3 4 3 3 6 7 3 2 2 2 1 3 3 3 3 3 6 7 6
4 3 5 7 10 10 6 1 2 2 6 6 3 2 3 3 5 3 3 2 2 2 2 3 2 2 4 2 2 4 1 4 5 5 4 3 6 3 1 3 5 8 9 8
5 3 4 6 9 11 4 5 4 0 4 6 3 4 3 3 4 3 3 2 1 1 3 3 2 1 5 4 3 5 2 1 4 5 2 3 4 2 3 7 9 10 10 9
5 3 5 6 7 7 4 7 5 3 5 5 4 4 5 2 3 3 1 3 1 3 0 3 3 2 4 4 4 8 4 3 3 3 3 4 3 4 7 9 11 10 10 9
4 4 6 8 8 8 5 3 6 6 5 4 4 2 5 2 5 4 1 1 2 4 1 3 5 2 3 5 6 4 3 4 1 3 3 5 3 4 7 7 8 8 8 7
3 5 8 4 4 4 4 5 8 3 5 4 3 3 3 4 2 0 4 3 4 3 3 2 3 4 6 5 6 6 6 7 6 7 2 3 0 4 4 7 7 8 3 6
2 4 4 4 3 3 6 6 5 5 4 4 5 1 3 4 4 5 2 3 2 4 4 2 5 5 6 5 5 6 7 7 6 6 5 2 3 4 4 4 5 5 5 5
4 4 1 4 3 5 4 3 4 4 4 5 3 4 4 3 4 3 2 3 1 4 5 4 4 4 6 4 6 6 7 6 4 3 3 3 4 4 4 4 5 6 7 7
3 3 0 3 4 3 5 4 3 5 2 4 4 2 5 3 2 3 3 4 1 4 5 4 4 7 6 6 7 7 8 9 9 8 6 6 6 7 6 7 7 7 7 7
3 4 4 3 3 3 6 8 4 4 5 3 3 5 3 4 3 4 3 6 4 3 4 3 4 6 6 6 5 6 6 7 7 6 6 7 6 6 7 8 8 9 9 9
3 4 2 5 5 5 3 2 3 6 1 2 2 3 4 2 4 3 4 2 2 4 5 3 4 8 7 5 5 5 6 7 7 7 7 8 8 8 8 8 8 9 10 11
3 3 4 6 0 2 1 0 2 3 2 2 3 2 2 4 4 3 3 3 5 2 2 3 6 7 5 3 3 6 7 7 8 9 8 8 8 8 8 7 7 9 10 11
3 3 4 3 4 4 5 4 3 1 2 1 3 3 4 4 2 3 4 3 2 2 4 6 6 5 3 2 6 7 8 8 9 9 8 8 8 8 9 9 9 10 10 10
3 4 3 2 2 2 1 0 0 1 3 4 3 5 2 1 3 3 1 2 3 5 6 6 6 4 4 5 6 6 7 7 7 8 7 8 7 7 7 7 6 6 6 5
Wind_Direction
351 348 344 341 340 335 278 284 215 124 267 203 210 220 231 286 223 201 255 285 287 291 309 243 232 222 237 150 190 197 211 226 246 213 104 334 299 263 211 234 177 249 308 108
354 350 345 342 343 345 308 292 78 164 259 215 208 139 211 261 234 220 240 259 246 327 290 287 241 221 48 190 202 208 182 225 220 226 191 178 228 206 233 247 287 180 231 124
354 353 349 344 343 342 279 258 179 149 215 358 287 206 221 228 199 255 262 277 273 259 264 225 288 237 165 199 236 45 235 234 235 244 219 191 192 202 207 210 203 165 225 113
354 353 351 347 344 342 272 304 69 358 174 189 214 237 109 231 227 220 231 236 241 255 266 241 233 233 207 186 141 220 227 229 229 245 250 251 246 190 195 223 236 234 215 194
356 359 355 349 347 338 264 321 310 178 115 174 225 156 206 259 242 238 213 235 242 233 237 260 338 313 231 224 168 194 217 230 227 234 225 239 233 207 196 211 219 216 251 132
359 6 7 360 355 334 48 54 160 282 134 185 230 135 173 279 273 232 255 269 281 260 267 279 310 295 297 323 262 199 200 214 213 231 203 219 226 212 210 199 191 221 214 74
360 10 16 11 10 356 4 27 282 274 158 243 132 229 283 281 261 264 325 268 238 35 326 276 255 253 235 233 197 248 204 206 218 235 189 218 99 144 214 203 186 180 121 96
1 11 16 17 19 1 42 38 332 346 281 321 211 283 305 289 228 231 254 274 4 321 272 230 207 198 207 197 198 197 229 210 179 201 214 102 145 171 184 188 171 144 118 123
360 9 16 18 19 10 331 54 348 327 313 136 340 308 338 328 341 197 209 131 317 245 252 219 217 207 214 186 175 204 160 244 233 196 210 213 133 128 162 177 149 116 128 140
359 10 16 19 18 14 331 64 21 286 290 68 321 342 343 336 309 283 317 347 293 220 229 229 219 219 301 212 203 180 190 224 214 192 210 93 106 126 160 210 94 114 136 141
351 10 15 19 19 15 343 65 26 337 309 298 293 314 321 327 353 331 23 244 98 325 251 271 190 269 125 214 44 269 222 230 191 248 217 139 68 184 251 32 93 77 139 133
336 1 7 15 18 11 340 20 64 326 262 337 310 291 291 286 301 301 1 16 74 3 279 322 266 194 211 348 170 156 188 355 17 341 47 55 27 33 41 10 24 87 131 127
321 351 357 6 13 11 354 339 356 248 264 229 231 150 108 250 252 259 302 83 357 67 326 326 319 286 289 205 95 149 112 24 351 262 92 65 56 71 82 48 34 94 122 129
279 334 348 354 354 357 335 332 19 273 292 281 106 142 135 352 220 213 250 332 316 281 281 289 309 318 322 49 34 293 37 210 116 226 147 136 125 82 48 51 91 129 139 125
250 301 340 346 338 337 295 243 50 333 310 334 352 139 56 82 153 157 173 257 296 326 299 288 5 317 291 21 286 240 185 62 257 31 43 340 88 95 55 114 103 120 123 117
232 286 326 334 332 324 247 200 150 2 335 275 253 86 158 131 156 143 104 111 171 282 311 348 279 356 278 241 258 60 99 76 346 20 82 80 113 128 154 112 98 101 106 109
223 279 307 314 320 305 298 3 35 359 300 268 259 178 131 211 207 165 199 169 126 289 262 264 298 213 280 278 269 137 103 39 65 91 148 140 168 155 149 113 106 101 102 105
225 283 299 302 305 267 240 120 221 246 276 259 276 154 194 201 206 191 184 229 205 167 327 206 240 184 248 258 81 21 343 328 191 147 30 6 65 99 101 102 104 93 83 87
240 292 304 245 220 224 76 100 140 224 299 300 259 267 123 181 211 32 178 258 226 98 245 208 248 188 226 43 344 326 345 331 339 314 294 332 262 92 117 139 154 111 128 165
280 254 218 180 96 11 166 184 204 195 184 225 265 14 210 256 171 188 255 196 250 224 126 133 235 227 70 27 356 336 321 301 286 299 236 228 126 94 82 78 65 48 53 56
212 200 159 57 118 221 222 211 222 158 223 195 245 283 277 143 233 210 297 283 219 248 132 243 189 209 110 81 62 38 36 44 77 72 60 55 40 55 53 43 35 34 34 24
34 13 204 214 213 210 231 203 160 225 224 160 239 158 233 122 255 222 190 254 215 255 134 230 232 94 116 110 83 67 51 54 61 54 53 43 41 24 8 352 356 354 348 342
172 214 186 204 156 205 219 178 176 199 172 165 200 190 224 169 235 242 221 232 228 110 209 231 54 136 141 114 86 67 43 33 31 25 15 3 354 349 341 327 318 316 311 313
219 176 182 224 182 229 184 186 82 71 270 266 287 215 205 165 208 217 246 196 258 232 221 155 110 151 120 76 27 17 10 2 353 348 343 335 335 329 319 309 315 312 309 311
216 208 222 198 247 189 158 116 231 171 289 249 180 216 245 186 244 226 282 227 232 272 48 90 105 119 97 60 356 333 342 338 329 328 321 321 321 314 309 306 309 307 305 307
235 237 219 158 211 158 181 176 215 142 217 196 242 198 197 199 234 231 225 263 334 81 96 108 124 130 133 337 332 335 326 320 316 315 317 316 310 321 321 311 316 329 325 321
219 205 217 298 341 37 79 198 89 124 248 205 214 192 170 49 228 221 283 8 88 115 110 120 76 45 1 333 316 330 321 321 310 304 297 296 309 291 306 314 330 343 346 323